Regional Weather Roundup
Issued by NWS

Home | Current Version | Previous Version | Text Only | Print | Product List | Glossary On
Versions: 1 2 3 4 5 6 7 8 9 10 11 12 13 14 15 16 17 18 19 20 21 22 23 24 25 26 27 28 29 30 31 32 33 34 35 36 37 38 39 40 41 42 43 44 45 46 47 48 49 50
000
ASUS43 KDMX 130308
RWRIA

WEATHER ROUNDUP FOR IOWA
NATIONAL WEATHER SERVICE DES MOINES IA
900 PM CST FRI FEB 12 2016

NOTE: "FAIR" INDICATES FEW OR NO CLOUDS BELOW 12,000 FEET WITH NO
SIGNIFICANT WEATHER AND/OR OBSTRUCTIONS TO VISIBILITY.

* - THESE STATIONS ARE NOT NWS STATIONS...THUS NOT UNDER NWS
QUALITY CONTROL.  THEY ALSO DO NOT REPORT WEATHER SUCH
AS PRECIPITATION OR FOG.

IAZ001>003-012>014-020>022-031>034-043>046-130400-
   NORTHWEST IOWA

CITY           SKY/WX    TMP DP  RH WIND       PRES   REMARKS
CARROLL *      CLEAR      3  -2  78 NW12      30.61R WCI -13
CHEROKEE *     CLOUDY     3  -4  72 N6        30.62S WCI  -8
DENISON *      CLEAR      7  -2  66 N5        30.60R WCI  -2
LE MARS *      CLEAR      5  -2  72 N7        30.65R WCI  -7
ORANGE CITY *  CLEAR      3  -2  78 N8        30.60S WCI -10
SHELDON *      CLEAR      1  -4  78 N13       30.59S WCI -16
SIOUX CITY     CLOUDY    11   0  61 N10       30.65R WCI  -3
SPENCER        CLOUDY     1  -7  68 NW13      30.59R WCI -17
STORM LAKE *   CLEAR      3  -4  72 NW10      30.59R WCI -12
$$

IAZ055>058-069>071-079>083-090>094-130400-
   SOUTHWEST IOWA

CITY           SKY/WX    TMP DP  RH WIND       PRES   REMARKS
ATLANTIC *     CLEAR      9   1  72 N7        30.62R WCI  -3
AUDUBON *      CLEAR      5  -2  72 N5        30.59R WCI  -4
CLARINDA *     CLEAR     14   3  62 N12       30.64R WCI   0
COUNCIL BLFS * CLEAR     12   1  62 N12       30.62R WCI  -2
CRESTON *      CLEAR      9   1  72 NW12      30.60R WCI  -6
HARLAN  *      CLEAR      9   0  66 N6        30.64S WCI  -1
LAMONI         CLOUDY    10  -1  61 N12       30.57R WCI  -5
RED OAK *      MOCLDY    12   5  73 N9        30.63R WCI   0
SHENANDOAH *   CLEAR     14   5  67 N14       30.63R WCI  -1
$$

IAZ047>049-059>061-072>074-084-130400-
   CENTRAL IOWA

CITY           SKY/WX    TMP DP  RH WIND       PRES   REMARKS
AMES           CLOUDY     6  -1  73 N12       30.59R WCI  -9
ANKENY *       CLEAR      7   0  72 NW12      30.60R WCI  -9
BOONE *        CLEAR      5  -4  66 NW14      30.57R WCI -12
CHARITON *     PTCLDY     9   0  66 NW12      30.58R WCI  -6
DES MOINES     CLOUDY     8  -1  66 NW8       30.60R WCI  -4
GRINNELL*      CLOUDY     7   1  78 NW12      30.56R WCI  -9
KNOXVILLE *    CLEAR      9   0  66 NW12      30.57R WCI  -6
MARSHALLTOWN   CLOUDY     5  -1  76 NW10      30.56R WCI -10
NEWTON *       FLURRIES   7   1  78 NW13G20   30.57R WCI  -9
PELLA *        CLOUDY     9   1  72 NW14      30.59R WCI  -8
$$

IAZ004>006-015-016-023>025-035-036-130400-
   NORTH CENTRAL IOWA

CITY           SKY/WX    TMP DP  RH WIND       PRES   REMARKS
ALGONA *       CLEAR      3  -2  78 N12G21    30.55F WCI -13
CLARION *      CLEAR      3  -4  72 N10       30.56S WCI -12
ESTHERVILLE    CLOUDY     0  -6  76 NW14      30.57S WCI -19
FORT DODGE *   CLOUDY     3  -6  66 NW6       30.59R WCI  -8
MASON CITY     CLOUDY     2  -7  66 NW13      30.55R WCI -15
FOREST CITY *  CLEAR      3  -4  72 NW10      30.55R WCI -12
WEBSTER CITY * CLEAR      1  -6  71 NW15      30.56S WCI -18
IOWA FALLS *     N/A      3  -2  78 NW10      30.56R WCI -12
$$

IAZ007>011-017>019-026>030-037>042-050>054-066-130400-
   NORTHEAST IOWA

CITY           SKY/WX    TMP DP  RH WIND       PRES   REMARKS
CEDAR RAPIDS   CLEAR      8  -2  63 N16       30.51S WCI -10
CHARLES CITY * CLEAR      3  -9  55 NW15      30.54R WCI -15
CLINTON *      CLEAR     10  -1  61 NW17G23   30.49R WCI  -8
DECORAH *      CLEAR      1 -11  55 NW5       30.50R WCI  -8
DUBUQUE        CLEAR      6  -5  60 NW16      30.46R WCI -12
MONTICELLO *   CLEAR      7  -4  61 NW10      30.50S WCI  -8
OELWEIN *      CLEAR      3  -8  60 NW14      30.52R WCI -15
WATERLOO       CLOUDY     4  -6  63 NW13      30.55R WCI -13
$$

IAZ064-065-067-068-078-130400-
   EAST CENTRAL IOWA

CITY           SKY/WX    TMP DP  RH WIND       PRES   REMARKS
DAVENPORT      CLEAR      9  -2  61 NW17      30.50R WCI  -9
IOWA CITY      CLEAR     11  -3  53 N14G25    30.56R WCI  -5
MT. PLEASANT * CLEAR     14   3  62 NW10      30.55R WCI   1
MUSCATINE *    CLEAR     12   0  57 NW12      30.55R WCI  -2
QUAD CITIES    CLEAR     11  -2  56 NW21      30.50R WCI  -8
$$

IAZ062-063-075>077-085>089-095>099-130400-
   SOUTHEAST IOWA

CITY           SKY/WX    TMP DP  RH WIND       PRES   REMARKS
BURLINGTON     CLEAR     12   2  64 NW15G28   30.52R WCI  -4
FAIRFIELD *    CLEAR     10   1  67 NW15      30.55R WCI  -6
FORT MADISON * CLEAR     12   3  67 NW12G18   30.53R WCI  -2
KEOKUK *       CLEAR     14   3  62 NW16      30.53R WCI  -2
OSKALOOSA *      N/A      9   3  78 NW16      30.57R WCI  -9
CENTERVILLE *  CLEAR      9   1  72 NW9       30.57R WCI  -5
OTTUMWA        CLOUDY     9   2  73 NW15      30.56R WCI  -8
WASHINGTON *   CLEAR     10   0  61 NW14G22   30.56R WCI  -5
$$

ABBREVIATIONS USED IN REMARKS
   TC - TEMPERATURES IN CELSIUS
  WCI - WIND CHILL INDEX
   HX - HEAT INDEX
  VSB - VISIBILITY
$$




USA.gov is the U.S. government's official web portal to all federal, state and local government web resources and services.